Location: Riverside
(39.1734°N, 77.8561°W)
Time: 08:42:06
(UTC+00:00)

ISS - Visible Passes

Search period start: 20 November 2019 00:00
Search period end: 30 November 2019 00:00
Orbit: 412 x 421 km, 51.6° (Epoch: 20 November)

Date Brightness Start Highest point End Pass type
(mag) Time Alt. Az. Time Alt. Az. Time Alt. Az.
20 Nov -0.6 00:26:38 10° SW 00:26:54 12° SW 00:26:54 12° SW visible
20 Nov -2.9 23:38:25 10° SSW 23:40:56 39° S 23:40:56 39° S visible
21 Nov -2.5 22:50:32 10° SSW 22:53:22 26° SE 22:54:52 19° E visible
22 Nov -0.7 00:26:56 10° W 00:27:47 16° W 00:27:47 16° W visible
22 Nov -3.4 23:38:15 10° WSW 23:41:33 56° NW 23:41:36 56° NNW visible
23 Nov -3.8 22:49:47 10° SW 22:53:08 82° SE 22:55:21 20° NE visible
24 Nov -0.5 00:27:50 10° WNW 00:28:16 12° WNW 00:28:16 12° WNW visible
24 Nov -2.0 23:38:48 10° W 23:41:38 24° NNW 23:41:56 24° NNW visible
25 Nov -2.6 22:49:56 10° W 22:53:03 36° NNW 22:55:31 15° NNE visible
26 Nov -1.3 23:39:53 10° NW 23:41:51 15° NNW 23:41:58 15° NNW visible
27 Nov -1.6 22:50:42 10° WNW 22:53:10 19° NNW 22:55:27 11° NNE visible
28 Nov -1.0 23:41:20 10° NNW 23:41:48 11° NNW 23:41:48 11° NNW visible
29 Nov -1.3 22:51:56 10° NW 22:53:24 12° NNW 22:54:52 10° NNE visible
